When you browse on this site, cookies collect data to enhance your experience and personalize the content and advertising you see.
Visit our Privacy Policy to learn more. By continuing to use the site, you agree to this use of cookies and data.

Hourly Weather Houston

Today, 11 August, Tuesday

Time Temperature Precipitation Wind Pressure Humidity
00:00 +30°C° 0 mm 3 mps 761 mmHg 78%
01:00 +30°C° 0 mm 3 mps 760 mmHg 78%
02:00 +30°C° 0 mm 3 mps 760 mmHg 79%
03:00 +30°C° 0 mm 3 mps 760 mmHg 80%
04:00 +30°C° 0 mm 2 mps 760 mmHg 80%
05:00 +29°C° 0 mm 2 mps 760 mmHg 80%
06:00 +29°C° 0 mm 2 mps 760 mmHg 80%
07:00 +30°C° 0 mm 2 mps 760 mmHg 74%
08:00 +32°C° 0 mm 2 mps 760 mmHg 68%
09:00 +34°C° 0 mm 2 mps 760 mmHg 62%
10:00 +35°C° 0 mm 3 mps 760 mmHg 57%
11:00 +37°C° 0 mm 3 mps 760 mmHg 51%
12:00 +38°C° 0 mm 3 mps 760 mmHg 46%
13:00 +38°C° 0.1 mm 3 mps 760 mmHg 46%
14:00 +38°C° 0.1 mm 4 mps 759 mmHg 46%
15:00 +38°C° 0.1 mm 4 mps 759 mmHg 46%
16:00 +37°C° 0.1 mm 4 mps 759 mmHg 50%
17:00 +36°C° 0.1 mm 4 mps 758 mmHg 54%
18:00 +35°C° 0.1 mm 4 mps 758 mmHg 59%
19:00 +34°C° 0 mm 4 mps 759 mmHg 63%
20:00 +33°C° 0 mm 4 mps 759 mmHg 67%
21:00 +32°C° 0 mm 4 mps 759 mmHg 71%
22:00 +32°C° 0 mm 4 mps 759 mmHg 72%
23:00 +31°C° 0 mm 3 mps 759 mmHg 72%

Tomorrow, 12 August, Wednesday

Time Temperature Precipitation Wind Pressure Humidity
00:00 +30°C° 0 mm 3 mps 759 mmHg 73%
01:00 +30°C° 0 mm 3 mps 759 mmHg 74%
02:00 +30°C° 0 mm 2 mps 759 mmHg 76%
03:00 +30°C° 0 mm 2 mps 759 mmHg 78%
04:00 +29°C° 0 mm 2 mps 759 mmHg 79%
05:00 +29°C° 0 mm 2 mps 759 mmHg 80%
06:00 +29°C° 0 mm 2 mps 759 mmHg 82%
07:00 +30°C° 0 mm 2 mps 760 mmHg 76%
08:00 +32°C° 0 mm 2 mps 760 mmHg 70%
09:00 +34°C° 0 mm 3 mps 760 mmHg 63%
10:00 +35°C° 0 mm 3 mps 760 mmHg 57%
11:00 +36°C° 0 mm 2 mps 760 mmHg 50%
12:00 +38°C° 0 mm 2 mps 760 mmHg 44%
13:00 +38°C° 0 mm 3 mps 759 mmHg 43%
14:00 +38°C° 0 mm 3 mps 759 mmHg 42%
15:00 +39°C° 0 mm 3 mps 758 mmHg 41%
16:00 +38°C° 0 mm 4 mps 758 mmHg 46%
17:00 +37°C° 0 mm 4 mps 758 mmHg 51%
18:00 +36°C° 0 mm 4 mps 758 mmHg 55%
19:00 +35°C° 0 mm 4 mps 758 mmHg 59%
20:00 +33°C° 0 mm 4 mps 759 mmHg 63%
21:00 +32°C° 0 mm 4 mps 759 mmHg 66%
22:00 +32°C° 0 mm 4 mps 759 mmHg 68%
23:00 +30°C° 0 mm 3 mps 759 mmHg 69%

Day after tomorrow, 13 August, Thursday

Time Temperature Precipitation Wind Pressure Humidity
00:00 +30°C° 0 mm 3 mps 759 mmHg 70%
01:00 +30°C° 0 mm 3 mps 759 mmHg 72%
02:00 +30°C° 0 mm 3 mps 759 mmHg 73%
03:00 +29°C° 0 mm 3 mps 759 mmHg 75%
04:00 +29°C° 0 mm 2 mps 759 mmHg 76%
05:00 +29°C° 0 mm 2 mps 759 mmHg 77%
06:00 +29°C° 0 mm 2 mps 759 mmHg 78%
07:00 +30°C° 0 mm 2 mps 760 mmHg 73%
08:00 +31°C° 0 mm 2 mps 760 mmHg 68%
09:00 +32°C° 0 mm 2 mps 760 mmHg 62%
10:00 +35°C° 0 mm 2 mps 760 mmHg 56%
11:00 +36°C° 0 mm 2 mps 760 mmHg 51%
12:00 +37°C° 0 mm 2 mps 760 mmHg 45%
13:00 +38°C° 0 mm 2 mps 759 mmHg 44%
14:00 +38°C° 0 mm 3 mps 759 mmHg 43%
15:00 +39°C° 0 mm 3 mps 758 mmHg 43%
16:00 +38°C° 0.1 mm 3 mps 758 mmHg 47%
17:00 +37°C° 0.1 mm 4 mps 758 mmHg 51%
18:00 +36°C° 0.1 mm 4 mps 758 mmHg 55%
19:00 +35°C° 0.1 mm 4 mps 758 mmHg 59%
20:00 +34°C° 0.1 mm 4 mps 758 mmHg 63%
21:00 +32°C° 0.1 mm 4 mps 759 mmHg 67%
22:00 +31°C° 0 mm 3 mps 759 mmHg 67%
23:00 +30°C° 0 mm 3 mps 759 mmHg 68%

14 August, Friday

Time Temperature Precipitation Wind Pressure Humidity
00:00 +30°C° 0 mm 3 mps 759 mmHg 69%
01:00 +30°C° 0 mm 3 mps 758 mmHg 70%
02:00 +29°C° 0 mm 3 mps 758 mmHg 71%
03:00 +29°C° 0 mm 3 mps 758 mmHg 73%
04:00 +29°C° 0 mm 2 mps 758 mmHg 75%
05:00 +29°C° 0 mm 2 mps 759 mmHg 78%
06:00 +29°C° 0 mm 2 mps 759 mmHg 80%
07:00 +30°C° 0 mm 2 mps 759 mmHg 74%
08:00 +31°C° 0 mm 2 mps 759 mmHg 68%
09:00 +32°C° 0 mm 2 mps 759 mmHg 62%
10:00 +35°C° 0 mm 2 mps 759 mmHg 56%
11:00 +36°C° 0 mm 2 mps 759 mmHg 51%
12:00 +37°C° 0 mm 2 mps 759 mmHg 46%
13:00 +37°C° 0.1 mm 2 mps 758 mmHg 46%
14:00 +37°C° 0.1 mm 3 mps 758 mmHg 47%
15:00 +37°C° 0.1 mm 3 mps 757 mmHg 47%
16:00 +36°C° 0.5 mm 3 mps 757 mmHg 50%
17:00 +36°C° 0.5 mm 3 mps 757 mmHg 53%
18:00 +35°C° 0.5 mm 3 mps 757 mmHg 56%
19:00 +34°C° 0.5 mm 3 mps 757 mmHg 60%
20:00 +33°C° 0.5 mm 4 mps 758 mmHg 65%
21:00 +32°C° 0.5 mm 4 mps 758 mmHg 69%
22:00 +32°C° 0 mm 4 mps 758 mmHg 71%
23:00 +30°C° 0 mm 4 mps 758 mmHg 73%

15 August, Saturday

Time Temperature Precipitation Wind Pressure Humidity
00:00 +30°C° 0 mm 3 mps 758 mmHg 75%
01:00 +30°C° 0 mm 3 mps 758 mmHg 76%
02:00 +30°C° 0 mm 3 mps 758 mmHg 78%
03:00 +29°C° 0 mm 3 mps 758 mmHg 79%
04:00 +29°C° 0 mm 3 mps 758 mmHg 79%
05:00 +29°C° 0 mm 3 mps 758 mmHg 79%
06:00 +29°C° 0 mm 2 mps 758 mmHg 79%
07:00 +30°C° 0 mm 2 mps 759 mmHg 73%
08:00 +31°C° 0 mm 2 mps 759 mmHg 66%
09:00 +32°C° 0 mm 2 mps 760 mmHg 60%
10:00 +35°C° 0 mm 2 mps 759 mmHg 55%
11:00 +36°C° 0 mm 2 mps 759 mmHg 49%
12:00 +37°C° 0 mm 3 mps 759 mmHg 43%
13:00 +38°C° 0 mm 3 mps 759 mmHg 43%
14:00 +38°C° 0 mm 3 mps 758 mmHg 42%
15:00 +38°C° 0 mm 4 mps 758 mmHg 42%
16:00 +37°C° 0 mm 4 mps 758 mmHg 47%
17:00 +36°C° 0 mm 4 mps 758 mmHg 51%
18:00 +35°C° 0 mm 4 mps 758 mmHg 55%
19:00 +34°C° 0 mm 4 mps 758 mmHg 57%
20:00 +33°C° 0 mm 4 mps 759 mmHg 59%
21:00 +31°C° 0 mm 3 mps 759 mmHg 61%
22:00 +31°C° 0 mm 3 mps 759 mmHg 63%
23:00 +30°C° 0 mm 3 mps 759 mmHg 65%

16 August, Sunday

Time Temperature Precipitation Wind Pressure Humidity
00:00 +30°C° 0 mm 3 mps 759 mmHg 66%
01:00 +30°C° 0 mm 2 mps 759 mmHg 67%
02:00 +29°C° 0 mm 2 mps 759 mmHg 68%
03:00 +29°C° 0 mm 2 mps 759 mmHg 69%
04:00 +29°C° 0 mm 1 mps 759 mmHg 70%
05:00 +29°C° 0 mm 1 mps 759 mmHg 71%
06:00 +29°C° 0 mm 1 mps 760 mmHg 73%
07:00 +30°C° 0 mm 1 mps 760 mmHg 69%
08:00 +31°C° 0 mm 1 mps 760 mmHg 65%
09:00 +33°C° 0 mm 1 mps 761 mmHg 61%
10:00 +34°C° 0 mm 1 mps 760 mmHg 54%
11:00 +36°C° 0 mm 1 mps 760 mmHg 46%
12:00 +37°C° 0 mm 1 mps 760 mmHg 39%
13:00 +39°C° 0 mm 1 mps 759 mmHg 38%
14:00 +39°C° 0 mm 2 mps 759 mmHg 38%
15:00 +39°C° 0 mm 2 mps 759 mmHg 37%
16:00 +38°C° 0 mm 3 mps 759 mmHg 42%
17:00 +37°C° 0 mm 3 mps 758 mmHg 47%
18:00 +36°C° 0 mm 3 mps 758 mmHg 52%
19:00 +35°C° 0 mm 3 mps 759 mmHg 55%
20:00 +34°C° 0 mm 3 mps 759 mmHg 59%
21:00 +33°C° 0 mm 3 mps 759 mmHg 62%
22:00 +33°C° 0 mm 3 mps 759 mmHg 65%
23:00 +31°C° 0 mm 2 mps 759 mmHg 67%
Show more